Tracking 30703 objects as of 13-Jun-2025
HD Live streaming from Space Station
objects crossing your sky now

LATINSAT A

Track LATINSAT A now!
10-day predictions
LATINSAT A is classified as:


NORAD ID: 27612
Int'l Code: 2002-058H
Perigee: 588.0 km
Apogee: 657.4 km
Inclination: 64.6 °
Period: 97.0 minutes
Semi major axis: 6993 km
RCS: 0.0297 m2 (small)
Launch date: December 20, 2002
Source: Argentina (ARGN)
Launch site: TYURATAM MISSILE AND SPACE COMPLEX (TTMTR)

Nanosatellite; planned constellation of 48 satellites, little LEO; asset tracking and monitoring services.
Your satellite tracking list
Your tracking list is empty




NASA's NSSDC Master Catalog

Two Line Element Set (TLE):
1 27612U 02058H   25163.82733515  .00000659  00000-0  94533-4 0  9992
2 27612  64.5557  27.6494 0049641 303.8973  55.7417 14.84366661213034
Source of the keplerian elements: AFSPC